SL-8 DEB

Satellite information

Favourite Embed

Satellite Type and Status

DEBRISIN ORBIT

Key statistics

Satellite SL-8 DEB at a glance.

Uptime

13243

Days in orbit

Revolutions

≈ 13.8

Per day

Orbit

LEO

Low Earth Orbit

Inclination

83.0

Latest

Satellite identification and parameters

Extended collection of information and parameters for SL-8 DEB.

Object identification

Identified? True

Debris? True

Object name: SL-8 DEB

International designator: 1989-050C

Object number (NORAD): 43336

Object ID (CCSDS): 43336

Country: COMMONWEALTH OF INDEPENDENT STATES (CIS)

Current information (Y/N): Y

RCS size: SMALL

Orbital parameters

Period: 104.365 minutes

Inclination: 82.9548 deg

SMA: 7342.808 km

Apoapsis: 994.509 km

Periapsis: 934.837 km

RAAN: 148.9081 deg

Eccentricy: 0.0040633

Argument of periapsis: 226.9725 deg

Mean anomaly: 132.8028 deg

Mean motion: 13.79778858 rev/day

Mean motion (dot): 0.0000035 rev/day2

B* drag term: 0.00032177 1/REarth

Two-line elements (TLE)

Creation date: July 1, 2025, 6:11 p.m.

Reference frame: TEME

Reference center: EARTH

Epoch: July 1, 2025, 3:22 a.m. UTC

TLE line 0: 0 SL-8 DEB

TLE line 1: 1 43336U 89050C 25182.14073772 .00000350 00000-0 32177-3 0 9991

TLE line 2: 2 43336 82.9548 148.9081 0040633 226.9725 132.8028 13.79778858501202

Live tracking on map

Real-time ground track for satellite SL-8 DEB.

In-orbit conjunctions

A list of the most updated potential collisions computed for object SL-8 DEB.

Target Orbit TCA Probability of collision Miss distance Type
SL-8 R/B LEO 2024-11-15 23:28:25 0.0001366403 219.0 (m) ROCKET BODY
THORAD AGENA D DEB SSO 2024-11-15 08:30:56 0.0004058871 416.0 (m) DEBRIS

Associated space launch

Navigation satellite providing location information for the Tsiklon-B navigation system

SL-8 DEB was lifted into orbit during the mission ‘Kosmos-3M | Parus 65’, on board a Kosmos-3M space rocket.

The launch took place on April 4, 1989, 6:36 p.m. from 132/2.

For more information about the launch, click the button.

Launch to space Kosmos-3M | Parus 65
Kosmos-3M | Parus 65

Agency: N/A

Status: Launch Successful

Launch date: April 4, 1989, 6:36 p.m. UTC

Rocket: Kosmos-3M

Launch pad: 132/2

Location: Plesetsk Cosmodrome, Russian Federation

...

Latest news about this satellite

There are no fresh news available about this satellite. Check back as we update our databases every day.


Newsletter sign-up

Weekly statistics, charts and insights to help you stay on top of the space industry.